Terminal Aerodrome Forecast
Issued by NWS

Home | Current Version | Previous Version | Text Only | Print | Product List | Glossary On
Versions: 1 2 3 4 5 6 7 8 9 10 11 12 13 14 15 16 17 18 19 20 21 22 23 24 25 26 27 28
744
FTUS45 KREV 221131
TAFCXP
TAF
KCXP 221131Z 2212/2312 00000KT P6SM VCSH SCT050 BKN090
     FM222100 08010KT P6SM VCTS SCT070CB BKN100
     FM230300 VRB03KT P6SM SCT090 BKN140=

USA.gov is the U.S. government's official web portal to all federal, state and local government web resources and services.